Retour au catalogue

FENGYUN 1C DEB

LostSSO
NORAD 37895·DEBRIS·🇨🇳 China

Lancé May 10, 1999 depuis Taiyuan Satellite Launch Center

Loading…

Prochains Passages (prochaines 24 heures)

TLE

PériméSource: Space-Track

Époque: Jul 15, 2025, 21:47 UTC

1 37895U 99025EMU 25196.90798864  .00001283  00000-0  14154-2 0  9992
2 37895  99.2157  83.9670 0307530 166.8378 194.1019 13.55122180554352

Suivez FENGYUN 1C DEB en temps réel avec AllMySat

Download on the App Store